Location: Dana
(41.8364°N, 106.7042°W)
Time: 00:49:08
(UTC+00:00)

Courier 1B - All Passes

Search period start: 12 May 2026 00:00
Search period end: 22 May 2026 00:00
Orbit: 962 x 1209 km, 28.3° (Epoch: 11 May)

Date Brightness Start Highest point End Pass type
(mag) Time Alt. Az. Time Alt. Az. Time Alt. Az.
12 May - 16:20:11 10° SSW 16:25:10 19° SSE 16:30:14 10° ESE daylight
12 May - 18:12:01 10° SW 18:18:25 29° S 18:24:54 10° ESE daylight
12 May - 20:05:30 10° WSW 20:11:51 27° S 20:18:09 10° SE daylight
12 May - 22:00:42 10° WSW 22:05:03 16° SSW 22:09:20 10° S daylight
13 May - 15:27:29 10° S 15:31:26 15° SSE 15:35:28 10° ESE daylight
13 May - 17:18:25 10° SW 17:24:35 27° S 17:30:53 10° ESE daylight
13 May - 19:11:32 10° WSW 19:18:00 29° S 19:24:29 10° SE daylight
13 May - 21:06:04 10° WSW 21:11:18 19° SSW 21:16:29 10° SSE daylight
14 May - 14:35:42 10° SSE 14:37:46 11° SSE 14:39:51 10° SE daylight
14 May - 16:25:01 10° SW 16:30:47 24° SSE 16:36:43 10° ESE daylight
14 May - 18:17:41 10° WSW 18:24:08 30° S 18:30:43 10° SE daylight
14 May - 20:11:43 10° WSW 20:17:31 23° SSW 20:23:17 10° SSE daylight
15 May - 15:31:49 10° SSW 15:37:02 21° SSE 15:42:24 10° ESE daylight
15 May - 17:23:57 10° SW 17:30:18 29° S 17:36:48 10° ESE daylight
15 May - 19:17:36 10° WSW 19:23:41 25° SSW 19:29:50 10° SE daylight
15 May - 21:13:24 10° SW 21:16:52 13° SSW 21:20:18 10° S daylight
16 May - 14:38:55 10° SSW 14:43:19 17° SSE 14:47:50 10° ESE daylight
16 May - 16:30:22 10° SW 16:36:28 28° S 16:42:47 10° ESE daylight
16 May - 18:23:37 10° WSW 18:29:51 27° S 18:36:13 10° SE daylight
16 May - 20:18:29 10° WSW 20:23:07 17° SSW 20:27:46 10° SSE daylight
17 May - 13:46:33 10° S 13:49:40 13° SSE 13:52:50 10° SE daylight
17 May - 15:36:55 10° SW 15:42:41 25° SSE 15:48:40 10° ESE daylight
17 May - 17:29:46 10° WSW 17:36:01 29° S 17:42:27 10° SE daylight
17 May - 19:24:02 10° WSW 19:29:20 20° SSW 19:34:43 10° SSE daylight
18 May - 14:43:39 10° SSW 14:48:56 22° SSE 14:54:26 10° ESE daylight
18 May - 16:36:03 10° SW 16:42:11 29° S 16:48:35 10° ESE daylight
18 May - 18:29:51 10° WSW 18:35:33 23° SSW 18:41:22 10° SE daylight
18 May - 20:27:03 10° SW 20:28:40 11° SSW 20:30:16 10° SSW daylight
19 May - 13:50:37 10° SSW 13:55:15 19° SSE 14:00:02 10° ESE daylight
19 May - 15:42:28 10° SW 15:48:24 28° S 15:54:36 10° ESE daylight
19 May - 17:35:51 10° WSW 17:41:44 25° S 17:47:49 10° SE daylight
19 May - 19:31:16 10° SW 19:34:56 14° SSW 19:38:38 10° S daylight
20 May - 12:57:57 10° S 13:01:36 15° SSE 13:05:22 10° SE daylight
20 May - 14:48:59 10° SW 14:54:38 26° S 15:00:33 10° ESE daylight
20 May - 16:42:01 10° WSW 16:47:56 27° S 16:54:06 10° SE daylight
20 May - 18:36:35 10° WSW 18:41:11 17° SSW 18:45:53 10° SSE daylight
21 May - 12:06:05 10° S 12:08:01 11° SSE 12:09:58 10° SE daylight
21 May - 13:55:39 10° SW 14:00:55 23° SSE 14:06:25 10° ESE daylight
21 May - 15:48:17 10° WSW 15:54:09 28° S 16:00:17 10° SE daylight
21 May - 17:42:19 10° WSW 17:47:26 20° SSW 17:52:41 10° SSE daylight
